Эльгяй

Россия / Республика Саха (Якутия)     62°29′05″N   117°30′32″E
темп.,
°C
ветер,
м/с
пор.,
м/с
влажн.,
%
обл.,
%
осадки,
мм/ч
давл.,
гПа
погр.,
м
1 марта, пн
пн100:00−32зюз239521 0.0 103223
03:00−34зюз239610 0.0 103223
06:00−35юз22970 0.0 103219
09:00−36юз22970 0.0 103222
12:00−28зюз249018 0.0 1031358
15:00−25зюз248755 0.0 1029664
18:00−28юз1294100 0.0 102919
21:00−32зюз1198100 0.0 102819
2 марта, вт
вт200:00−35з1110035 0.0 102819
03:00−36в0010047 0.0 102819
06:00−38вюв0010020 0.0 102719
09:00−37ссв119913 0.0 102719
12:00−30св129136 0.0 1026277
15:00−27ссв238868 0.0 1024464
18:00−29с2396100 0.0 102465
21:00−34ссв239890 0.0 102527
3 марта, ср
ср300:00−36с239859 0.0 102526
03:00−37с239961 0.0 102552
06:00−38с239983 0.0 102635
09:00−39с239875 0.0 102771
12:00−33с249559 0.0 1026289
15:00−29ссз238876 0.0 1026456
18:00−31сз2294100 0.0 102719
21:00−35зсз229562 0.0 102819
4 марта, чт
чт400:00−36зсз239526 0.0 102929
03:00−37з259454 0.0 1029116
06:00−36з3890100 0.0 1029264
09:00−34з4889100 0.0 1030323
12:00−32з4989100 0.0 1030401
15:00−28з51087100 0.0 1029530
18:00−27зсз41186100 0.0 1030593
21:00−29зсз41286100 0.0 1032497
5 марта, пт
пт500:00−32з3109062 0.0 1033326
03:00−33з399139 0.0 1034261
06:00−34з39933 0.0 1035206
09:00−34зюз38941 0.0 1036233
12:00−28з369041 0.0 1035463
15:00−24з368853 0.0 1034575
18:00−24зюз229261 0.0 103337
21:00−28зюз229444 0.0 103319